﻿STRMGAGEID,DATE_TIME,AVG_DISCHARGE,STDDEV_DISCHARGE,MIN_DISCHARGE,MAX_DISCHARGE,N_DISCHARGE,TDAILY_DISCHARGE,AVG_TEMP,STDDEV_TEMP,MIN_TEMP,MAX_TEMP,N_TEMP,AVG_COND,STDDEV_COND,MIN_COND,MAX_COND,N_COND
onyx_vnda,12/5/69,13.7,10.6,0,27,6,73800,,,,,0,,,,,0
onyx_vnda,12/6/69,144.5,65.3,25,210,10,1300500,,,,,0,,,,,0
onyx_vnda,12/7/69,143.6,45.1,92,195,9,1162800,,,,,0,,,,,0
onyx_vnda,12/8/69,65.6,48.1,14,160,12,708300,,,,,0,,,,,0
onyx_vnda,12/9/69,104.7,40.5,51,160,9,847800,,,,,0,,,,,0
onyx_vnda,12/10/69,86.9,17.6,67,132,11,860400,,,,,0,,,,,0
onyx_vnda,12/11/69,63.7,22.1,42,105,9,515700,,,,,0,,,,,0
onyx_vnda,12/12/69,51,15.2,33,74,9,413100,,,,,0,,,,,0
onyx_vnda,12/13/69,31.5,2.6,28,35,6,170100,,,,,0,,,,,0
onyx_vnda,12/14/69,53.9,9.5,38,67,8,387900,,,,,0,,,,,0
onyx_vnda,12/15/69,37.7,6.9,28,49,9,305100,,,,,0,,,,,0
onyx_vnda,12/16/69,112.2,80.3,28,261,11,1110600,,,,,0,,,,,0
onyx_vnda,12/17/69,180,52.1,129,288,8,1296000,,,,,0,,,,,0
onyx_vnda,12/18/69,258.8,94,56,352,8,1863000,,,,,0,,,,,0
onyx_vnda,12/19/69,438.5,125.2,238,576,6,2367900,,,,,0,,,,,0
onyx_vnda,12/20/69,452.3,43.5,412,514,4,1628100,,,,,0,,,,,0
onyx_vnda,12/21/69,310.4,44.6,252,375,9,2514600,,,,,0,,,,,0
onyx_vnda,12/22/69,381.2,37.9,335,425,5,1715400,,,,,0,,,,,0
onyx_vnda,12/23/69,272,150,60,445,10,2448000,,,,,0,,,,,0
onyx_vnda,12/24/69,175.9,66.2,120,278,9,1424700,,,,,0,,,,,0
onyx_vnda,12/25/69,132.2,41.6,74,203,10,1189800,,,,,0,,,,,0
onyx_vnda,12/26/69,76.2,20.2,45,111,10,685800,,,,,0,,,,,0
onyx_vnda,12/27/69,69,29.7,40,97,4,248400,,,,,0,,,,,0
onyx_vnda,12/28/69,60.2,7.5,47,70,11,595800,,,,,0,,,,,0
onyx_vnda,12/29/69,47.8,18,30,75,8,343800,,,,,0,,,,,0
onyx_vnda,12/30/69,67.9,10,53,84,11,672300,,,,,0,,,,,0
onyx_vnda,12/31/69,78,12.2,60,97,11,772200,,,,,0,,,,,0
onyx_vnda,1/1/70,99,9.8,86,108,4,356400,,,,,0,,,,,0
onyx_vnda,1/2/70,97.3,11.7,84,114,6,525600,,,,,0,,,,,0
onyx_vnda,1/3/70,78.6,20.9,51,105,9,636300,,,,,0,,,,,0
onyx_vnda,1/4/70,84.2,13.3,70,97,5,378900,,,,,0,,,,,0
onyx_vnda,1/5/70,70.8,19.1,42,89,5,318600,,,,,0,,,,,0
onyx_vnda,1/6/70,92.1,17.2,63,123,10,828900,,,,,0,,,,,0
onyx_vnda,1/7/70,133.4,14.6,111,152,9,1080900,,,,,0,,,,,0
onyx_vnda,1/8/70,176.9,25.9,139,220,9,1432800,,,,,0,,,,,0
onyx_vnda,1/9/70,460.1,75.2,319,554,8,3312900,,,,,0,,,,,0
onyx_vnda,1/10/70,802.1,196.4,352,1043,11,7940700,,,,,0,,,,,0
onyx_vnda,1/11/70,731.8,150.1,499,1086,11,7245000,,,,,0,,,,,0
onyx_vnda,1/12/70,505.4,200.4,156,773,15,6822900,,,,,0,,,,,0
onyx_vnda,1/13/70,224.6,151.8,63,514,16,3233700,,,,,0,,,,,0
onyx_vnda,1/14/70,174.7,107.5,35,352,15,2358000,,,,,0,,,,,0
onyx_vnda,1/15/70,96.4,44.6,38,191,11,954000,,,,,0,,,,,0
onyx_vnda,1/16/70,153.9,45.4,99,252,10,1385100,,,,,0,,,,,0
onyx_vnda,1/17/70,177.2,41.3,129,243,13,2073600,,,,,0,,,,,0
onyx_vnda,1/18/70,128.8,7.9,107,144,59,6841800,,,,,0,,,,,0
onyx_vnda,1/19/70,88.5,23,60,130,60,4780800,,,,,0,,,,,0
onyx_vnda,1/20/70,113.8,30.6,66,174,71,7269300,,,,,0,,,,,0
onyx_vnda,1/21/70,150.1,48.5,82,241,64,8648100,,,,,0,,,,,0
onyx_vnda,1/22/70,191.2,36.3,142,243,56,9637200,,,,,0,,,,,0
onyx_vnda,1/23/70,121.8,30.6,64,191,62,6795900,,,,,0,,,,,0
onyx_vnda,1/24/70,132.2,22.1,99,168,57,6782400,,,,,0,,,,,0
onyx_vnda,1/25/70,79.1,29.7,42,126,49,3488400,,,,,0,,,,,0
onyx_vnda,1/26/70,109.1,40.5,49,177,52,5103900,,,,,0,,,,,0
onyx_vnda,1/27/70,110.9,31.8,66,170,57,5688000,,,,,0,,,,,0
onyx_vnda,1/28/70,109.6,32.3,63,172,74,7302600,,,,,0,,,,,0
onyx_vnda,1/29/70,71.4,22.9,13,111,47,3020400,,,,,0,,,,,0
onyx_vnda,1/30/70,52.9,8.2,39,67,30,1427400,,,,,0,,,,,0
onyx_vnda,1/31/70,63,23.5,6,93,60,3401100,,,,,0,,,,,0
onyx_vnda,2/1/70,47.5,27,26,107,40,1709100,,,,,0,,,,,0
onyx_vnda,2/2/70,68.7,14.6,46,110,51,3154500,,,,,0,,,,,0
onyx_vnda,2/3/70,33.9,11.1,16,57,53,1616400,,,,,0,,,,,0
onyx_vnda,2/4/70,21.8,6,10,30,32,629100,,,,,0,,,,,0
onyx_vnda,2/5/70,18.3,4.3,7,23,32,526500,,,,,0,,,,,0
onyx_vnda,2/6/70,7.3,4,1,17,52,340200,,,,,0,,,,,0
onyx_vnda,2/7/70,3.5,1.4,1,5,44,139500,,,,,0,,,,,0
onyx_vnda,2/8/70,1.9,1.2,0,4,54,90900,,,,,0,,,,,0
onyx_vnda,2/9/70,1,0.7,0,2,26,23400,,,,,0,,,,,0
onyx_vnda,2/10/70,0.6,0.5,0,1,13,7200,,,,,0,,,,,0
onyx_vnda,12/5/70,26.2,28.9,0,61,6,141300,,,,,0,,,,,0
onyx_vnda,12/6/70,174.5,21.9,159,190,2,314100,,,,,0,,,,,0
onyx_vnda,12/7/70,232.1,69.1,176,337,8,1671300,,,,,0,,,,,0
onyx_vnda,12/8/70,247.9,53.8,162,330,9,2007900,,,,,0,,,,,0
onyx_vnda,12/9/70,147.1,48.5,80,234,11,1456200,,,,,0,,,,,0
onyx_vnda,12/10/70,104.1,19.7,79,136,14,1312200,,,,,0,,,,,0
onyx_vnda,12/11/70,133,19.7,98,145,5,598500,,,,,0,,,,,0
onyx_vnda,12/13/70,196.3,10.1,186,208,4,706500,,,,,0,,,,,0
onyx_vnda,12/14/70,282.1,85.7,142,407,11,2792700,,,,,0,,,,,0
onyx_vnda,12/15/70,180.5,58.1,100,283,11,1786500,,,,,0,,,,,0
onyx_vnda,12/16/70,217.7,71.1,92,337,14,2743200,,,,,0,,,,,0
onyx_vnda,12/17/70,275.2,193.3,46,519,10,2476800,,,,,0,,,,,0
onyx_vnda,12/18/70,551.4,198.9,63,692,9,4466700,,,,,0,,,,,0
onyx_vnda,12/19/70,601.2,160.6,380,806,10,5410800,,,,,0,,,,,0
onyx_vnda,12/20/70,812.6,290.6,106,1112,12,8775900,,,,,0,,,,,0
onyx_vnda,12/21/70,1036,393.7,324,1670,14,13053600,,,,,0,,,,,0
onyx_vnda,12/22/70,2753.7,767.6,1871,3265,3,7434900,,,,,0,,,,,0
onyx_vnda,12/23/70,4196.3,500.2,3409,4920,10,37766700,,,,,0,,,,,0
onyx_vnda,12/24/70,5540.4,344.1,4920,6012,11,54849600,,,,,0,,,,,0
onyx_vnda,12/25/70,6197.3,306,5713,6633,8,44620200,,,,,0,,,,,0
onyx_vnda,12/26/70,6594.5,132.8,6422,6847,10,59350500,,,,,0,,,,,0
onyx_vnda,12/27/70,6701.1,570.4,5812,7779,10,60309900,,,,,0,,,,,0
onyx_vnda,12/28/70,6140,683.2,5200,7512,11,60786000,,,,,0,,,,,0
onyx_vnda,12/29/70,5001,779.4,4387,6633,7,31506300,,,,,0,,,,,0
onyx_vnda,12/30/70,3880.6,464.8,3195,4738,8,27940500,,,,,0,,,,,0
onyx_vnda,12/31/70,3690.1,214.7,3337,3972,9,29889900,,,,,0,,,,,0
onyx_vnda,1/1/71,4326.1,340.3,3892,4935,9,35041500,,,,,0,,,,,0
onyx_vnda,1/2/71,5077.1,201.3,4615,5251,10,45693900,,,,,0,,,,,0
onyx_vnda,1/3/71,6558.8,1475.9,3669,10180,16,94446000,,,,,0,,,,,0
onyx_vnda,1/4/71,7962.2,298.4,7443,8525,10,71659800,,,,,0,,,,,0
onyx_vnda,1/5/71,8331.7,230,8053,8888,11,82484100,,,,,0,,,,,0
onyx_vnda,1/6/71,8296.9,400.5,7707,8685,7,52270200,,,,,0,,,,,0
onyx_vnda,1/7/71,6260.9,636.1,5413,7220,7,39443400,,,,,0,,,,,0
onyx_vnda,1/8/71,5312.7,325.5,4800,5685,6,28688400,,,,,0,,,,,0
onyx_vnda,1/10/71,3963.5,181.4,3740,4149,4,14268600,,,,,0,,,,,0
onyx_vnda,1/11/71,3682.1,312.7,3100,4065,9,29825100,,,,,0,,,,,0
onyx_vnda,1/12/71,4702,599.5,3982,5789,8,33854400,,,,,0,,,,,0
onyx_vnda,1/13/71,6086.5,319.7,5719,6570,8,43822800,,,,,0,,,,,0
onyx_vnda,1/14/71,5973.6,1329.2,3900,9133,14,75267000,,,,,0,,,,,0
onyx_vnda,1/15/71,5394.4,1375.1,3147,8645,10,48549600,,,,,0,,,,,0
onyx_vnda,1/16/71,5087.3,680.9,4065,6108,6,27471600,,,,,0,,,,,0
onyx_vnda,1/17/71,5243.3,535.6,4616,5894,4,18875700,,,,,0,,,,,0
onyx_vnda,1/18/71,2749,0,2749,2749,1,2474100,,,,,0,,,,,0
onyx_vnda,1/19/71,2337.3,369.6,1364,2877,16,33657300,,,,,0,,,,,0
onyx_vnda,1/20/71,2382.6,226.1,2023,2812,10,21443400,,,,,0,,,,,0
onyx_vnda,1/21/71,2775,599.5,2167,3435,6,14985000,,,,,0,,,,,0
onyx_vnda,1/22/71,2209.4,91.3,2118,2323,5,9942300,,,,,0,,,,,0
onyx_vnda,1/23/71,2448.8,125.6,2323,2606,4,8815500,,,,,0,,,,,0
onyx_vnda,1/24/71,2202.2,943.1,879,3740,9,17838000,,,,,0,,,,,0
onyx_vnda,1/25/71,1572,755.3,710,2118,3,4244400,,,,,0,,,,,0
onyx_vnda,1/26/71,1235,147.1,1085,1379,3,3334500,,,,,0,,,,,0
onyx_vnda,1/27/71,1493.8,745.1,222,2377,11,14788800,,,,,0,,,,,0
onyx_vnda,1/28/71,1284,226.3,1059,1690,7,8089200,,,,,0,,,,,0
onyx_vnda,1/29/71,1019.7,312.7,548,1357,10,9177300,,,,,0,,,,,0
onyx_vnda,1/30/71,575.9,400.9,107,1072,10,5183100,,,,,0,,,,,0
onyx_vnda,1/31/71,587.8,215.6,230,919,12,6347700,,,,,0,,,,,0
onyx_vnda,2/1/71,603.9,427.4,124,1226,16,8696700,,,,,0,,,,,0
onyx_vnda,2/2/71,734.8,425.4,142,1295,9,5951700,,,,,0,,,,,0
onyx_vnda,2/3/71,322,107.5,246,398,2,579600,,,,,0,,,,,0
onyx_vnda,2/5/71,329.5,3,326,332,4,1186200,,,,,0,,,,,0
onyx_vnda,2/6/71,205.5,62.8,130,309,10,1849500,,,,,0,,,,,0
onyx_vnda,2/7/71,289.3,105,146,457,15,3905100,,,,,0,,,,,0
onyx_vnda,2/8/71,172.3,72.6,98,243,3,465300,,,,,0,,,,,0
onyx_vnda,2/9/71,162,0,162,162,1,145800,,,,,0,,,,,0
onyx_vnda,2/10/71,111.7,34.3,63,148,10,1005300,,,,,0,,,,,0
onyx_vnda,2/11/71,64.8,19.9,50,98,5,291600,,,,,0,,,,,0
onyx_vnda,11/29/71,382.8,325.9,0,772,13,4478400,,,,,0,,,,,0
onyx_vnda,11/30/71,821.8,544,41,1462,10,7396200,,,,,0,,,,,0
onyx_vnda,12/1/71,2215.6,1408.1,348,4368,15,29910600,,,,,0,,,,,0
onyx_vnda,12/2/71,5297.2,1468.1,3007,6673,5,23837400,,,,,0,,,,,0
onyx_vnda,12/3/71,3927.2,601.1,2752,4451,9,31810500,,,,,0,,,,,0
onyx_vnda,12/4/71,2274.5,317.2,1911,2942,8,16376400,,,,,0,,,,,0
onyx_vnda,12/5/71,1327.8,319.1,959,2570,24,28680300,,,,,0,,,,,0
onyx_vnda,12/6/71,918.1,449.4,323,1751,43,35529300,,,,,0,,,,,0
onyx_vnda,12/7/71,740,577,32,1736,56,37297800,,,,,0,,,,,0
onyx_vnda,12/8/71,1193.5,900.6,89,2630,50,53705700,,,,,0,,,,,0
onyx_vnda,12/9/71,1117.4,935,70,3163,57,57321900,,,,,0,,,,,0
onyx_vnda,12/10/71,641.5,357.8,19,1023,56,32331600,,,,,0,,,,,0
onyx_vnda,12/11/71,408.3,219.7,67,678,51,18740700,,,,,0,,,,,0
onyx_vnda,12/12/71,405.8,70,315,568,55,20086200,,,,,0,,,,,0
onyx_vnda,12/13/71,163.3,107.7,35,444,42,6173100,,,,,0,,,,,0
onyx_vnda,12/14/71,184.7,82.8,106,323,30,4986000,,,,,0,,,,,0
onyx_vnda,12/15/71,178.4,24.9,141,217,19,3051000,,,,,0,,,,,0
onyx_vnda,12/16/71,219.6,106.1,90,382,27,5335200,,,,,0,,,,,0
onyx_vnda,12/17/71,263.7,76.9,172,402,28,6644700,,,,,0,,,,,0
onyx_vnda,12/18/71,146.9,24.3,117,182,26,3438000,,,,,0,,,,,0
onyx_vnda,12/19/71,180,118.6,37,375,39,6318900,,,,,0,,,,,0
onyx_vnda,12/20/71,261,62.9,168,365,30,7047900,,,,,0,,,,,0
onyx_vnda,12/21/71,640.2,239.6,275,876,35,20165400,,,,,0,,,,,0
onyx_vnda,12/22/71,915.5,529.5,105,1548,53,43670700,,,,,0,,,,,0
onyx_vnda,12/23/71,996.7,172.4,519,1175,34,30498300,,,,,0,,,,,0
onyx_vnda,12/24/71,532.4,285.7,54,934,64,30666600,,,,,0,,,,,0
onyx_vnda,12/25/71,344.9,70.6,214,452,39,12105000,,,,,0,,,,,0
onyx_vnda,12/26/71,300.7,29.5,259,346,26,7037100,,,,,0,,,,,0
onyx_vnda,12/27/71,367,72.5,256,484,41,13540500,,,,,0,,,,,0
onyx_vnda,12/28/71,739,250,361,1074,57,37910700,,,,,0,,,,,0
onyx_vnda,12/29/71,817.7,396.7,108,1319,45,33116400,,,,,0,,,,,0
onyx_vnda,12/30/71,776.8,58.6,690,863,33,23072400,,,,,0,,,,,0
onyx_vnda,12/31/71,726,323.8,64,1166,54,35283600,,,,,0,,,,,0
onyx_vnda,1/1/72,784.6,376.3,136,1283,46,32482800,,,,,0,,,,,0
onyx_vnda,1/2/72,683.6,110,406,853,49,30144600,,,,,0,,,,,0
onyx_vnda,1/3/72,945.5,287,338,1297,56,47655000,,,,,0,,,,,0
onyx_vnda,1/4/72,1402.8,339.3,866,1958,31,39139200,,,,,0,,,,,0
onyx_vnda,1/5/72,1719,94.7,1611,1911,17,26300700,,,,,0,,,,,0
onyx_vnda,1/6/72,1552.3,529.7,934,2395,27,37720800,,,,,0,,,,,0
onyx_vnda,1/7/72,956.8,103.7,792,1207,33,28415700,,,,,0,,,,,0
onyx_vnda,1/8/72,652,107.6,447,776,29,17016300,,,,,0,,,,,0
onyx_vnda,1/9/72,442.8,161.7,169,672,39,15541200,,,,,0,,,,,0
onyx_vnda,1/10/72,358.8,99.4,142,477,42,13561200,,,,,0,,,,,0
onyx_vnda,1/11/72,292.3,83.4,105,386,38,9996300,,,,,0,,,,,0
onyx_vnda,1/12/72,332.1,115.5,136,479,44,13149900,,,,,0,,,,,0
onyx_vnda,1/13/72,451.4,80.5,315,549,25,10156500,,,,,0,,,,,0
onyx_vnda,1/14/72,479.1,34.4,367,530,47,20266200,,,,,0,,,,,0
onyx_vnda,1/15/72,226.8,104.9,89,380,41,8367300,,,,,0,,,,,0
onyx_vnda,1/16/72,317.7,200.3,40,590,35,10008900,,,,,0,,,,,0
onyx_vnda,1/17/72,226.3,66.7,155,482,30,6109200,,,,,0,,,,,0
onyx_vnda,1/18/72,251.1,100.3,94,388,34,7683300,,,,,0,,,,,0
onyx_vnda,1/19/72,326.8,150.6,64,532,51,15002100,,,,,0,,,,,0
onyx_vnda,1/20/72,291.1,80.3,112,400,53,13883400,,,,,0,,,,,0
onyx_vnda,1/21/72,286.2,133.2,97,492,65,16740000,,,,,0,,,,,0
onyx_vnda,1/22/72,686.1,325.7,191,1134,52,32111100,,,,,0,,,,,0
onyx_vnda,1/23/72,563.4,370.2,64,1166,33,16733700,,,,,0,,,,,0
onyx_vnda,1/24/72,574.3,241.4,145,836,35,18090000,,,,,0,,,,,0
onyx_vnda,1/25/72,434.5,180.9,113,633,41,16034400,,,,,0,,,,,0
onyx_vnda,1/26/72,290.5,128,42,459,47,12289500,,,,,0,,,,,0
onyx_vnda,1/27/72,233.4,131.6,47,495,45,9452700,,,,,0,,,,,0
onyx_vnda,1/28/72,138.7,73.5,19,233,35,4369500,,,,,0,,,,,0
onyx_vnda,1/29/72,79.7,45.6,14,156,32,2294100,,,,,0,,,,,0
onyx_vnda,1/30/72,55.2,22.2,34,103,23,1142100,,,,,0,,,,,0
onyx_vnda,1/31/72,135.9,50.5,85,230,24,2935800,,,,,0,,,,,0
onyx_vnda,2/1/72,150.2,41.7,94,206,25,3380400,,,,,0,,,,,0
onyx_vnda,2/2/72,113.2,38.5,19,161,39,3974400,,,,,0,,,,,0
onyx_vnda,2/3/72,63.7,22.5,12,89,27,1548000,,,,,0,,,,,0
onyx_vnda,2/4/72,43.8,18.6,10,72,17,670500,,,,,0,,,,,0
onyx_vnda,2/5/72,20.9,4.3,16,27,9,169200,,,,,0,,,,,0
onyx_vnda,2/6/72,10.8,1.6,8,13,24,232200,,,,,0,,,,,0
onyx_vnda,2/7/72,8.7,2.9,3,14,30,234000,,,,,0,,,,,0
onyx_vnda,2/8/72,5.8,0.7,4,7,21,109800,,,,,0,,,,,0
onyx_vnda,2/9/72,2,1.4,1,4,4,7200,,,,,0,,,,,0
onyx_vnda,12/14/72,23.2,30.6,0,74,5,104400,,,,,0,,,,,0
onyx_vnda,12/15/72,291.4,192,87,613,28,7342200,,,,,0,,,,,0
onyx_vnda,12/16/72,346.1,125.6,92,518,27,8409600,,,,,0,,,,,0
onyx_vnda,12/17/72,190.8,75.8,29,277,32,5494500,,,,,0,,,,,0
onyx_vnda,12/18/72,89,22.7,48,136,22,1763100,,,,,0,,,,,0
onyx_vnda,12/19/72,42.7,6.7,35,53,11,423000,,,,,0,,,,,0
onyx_vnda,12/20/72,52.9,21.3,12,74,15,713700,,,,,0,,,,,0
onyx_vnda,12/21/72,93.7,29.2,54,150,21,1770300,,,,,0,,,,,0
onyx_vnda,12/22/72,438,220.6,87,719,29,11431800,,,,,0,,,,,0
onyx_vnda,12/23/72,544.8,296.8,101,965,31,15201000,,,,,0,,,,,0
onyx_vnda,12/24/72,558.1,309.3,64,965,34,17076600,,,,,0,,,,,0
onyx_vnda,12/25/72,865.6,323.5,374,1493,29,22590900,,,,,0,,,,,0
onyx_vnda,12/26/72,630.5,368.7,108,1255,32,18157500,,,,,0,,,,,0
onyx_vnda,12/27/72,484.6,260.9,65,856,38,16574400,,,,,0,,,,,0
onyx_vnda,12/28/72,384.7,77.1,210,487,36,12465000,,,,,0,,,,,0
onyx_vnda,12/29/72,223.5,146,50,441,30,6033600,,,,,0,,,,,0
onyx_vnda,12/30/72,201.9,72.1,65,332,27,4905900,,,,,0,,,,,0
onyx_vnda,12/31/72,153.6,47.4,61,276,27,3732300,,,,,0,,,,,0
onyx_vnda,1/1/73,109.6,35.8,52,178,22,2169900,,,,,0,,,,,0
onyx_vnda,1/2/73,69.5,22.5,40,94,13,813600,,,,,0,,,,,0
onyx_vnda,1/3/73,61.7,16.6,26,84,28,1555200,,,,,0,,,,,0
onyx_vnda,1/4/73,37.3,6.5,27,48,11,369000,,,,,0,,,,,0
onyx_vnda,1/5/73,18.7,2.1,16,22,7,117900,,,,,0,,,,,0
onyx_vnda,1/6/73,20.7,8.4,10,33,15,279000,,,,,0,,,,,0
onyx_vnda,1/7/73,23.1,6.9,11,31,15,311400,,,,,0,,,,,0
onyx_vnda,1/8/73,26.3,8.6,10,41,17,402300,,,,,0,,,,,0
onyx_vnda,1/9/73,75.6,38.1,36,148,22,1497600,,,,,0,,,,,0
onyx_vnda,1/10/73,142.7,18,120,169,15,1926900,,,,,0,,,,,0
onyx_vnda,1/11/73,167.2,33,133,212,11,1655100,,,,,0,,,,,0
onyx_vnda,1/12/73,147,17.8,117,175,22,2911500,,,,,0,,,,,0
onyx_vnda,1/13/73,100,28.2,65,165,25,2250900,,,,,0,,,,,0
onyx_vnda,1/14/73,165.7,71.3,65,261,22,3281400,,,,,0,,,,,0
onyx_vnda,1/15/73,361.8,195.8,64,651,37,12049200,,,,,0,,,,,0
onyx_vnda,1/16/73,249.1,119.4,49,398,30,6725700,,,,,0,,,,,0
onyx_vnda,1/17/73,331.5,139.3,115,512,22,6562800,,,,,0,,,,,0
onyx_vnda,1/18/73,279.9,138.4,49,485,33,8313300,,,,,0,,,,,0
onyx_vnda,1/19/73,90,22,64,130,16,1296000,,,,,0,,,,,0
onyx_vnda,1/20/73,82,20.1,52,124,16,1180800,,,,,0,,,,,0
onyx_vnda,1/21/73,76.6,17.5,50,108,14,965700,,,,,0,,,,,0
onyx_vnda,1/22/73,105.8,5,98,111,5,476100,,,,,0,,,,,0
onyx_vnda,1/23/73,68.2,7.2,59,81,15,920700,,,,,0,,,,,0
onyx_vnda,1/24/73,67.1,20.9,29,89,23,1389600,,,,,0,,,,,0
onyx_vnda,1/25/73,46.1,10.1,33,61,13,539100,,,,,0,,,,,0
onyx_vnda,1/26/73,84.8,40.1,24,137,19,1450800,,,,,0,,,,,0
onyx_vnda,1/27/73,64,11.1,52,91,12,691200,,,,,0,,,,,0
onyx_vnda,1/28/73,44.4,12.2,33,64,10,399600,,,,,0,,,,,0
onyx_vnda,1/29/73,79.9,21.6,42,108,15,1078200,,,,,0,,,,,0
onyx_vnda,1/30/73,46.5,3.7,41,52,8,334800,,,,,0,,,,,0
onyx_vnda,1/31/73,68.1,17.3,42,88,12,735300,,,,,0,,,,,0
onyx_vnda,2/1/73,39.9,10.1,25,62,14,503100,,,,,0,,,,,0
onyx_vnda,2/2/73,19.1,6.6,5,24,8,137700,,,,,0,,,,,0
onyx_vnda,12/31/73,170.1,109.5,0,316,14,2143800,,,,,0,,,,,0
onyx_vnda,1/1/74,397.3,68.4,286,574,35,12516300,,,,,0,,,,,0
onyx_vnda,1/2/74,671.6,65.8,572,904,37,22365000,,,,,0,,,,,0
onyx_vnda,1/3/74,1005.9,172,664,1629,39,35306100,,,,,0,,,,,0
onyx_vnda,1/4/74,2232,459.6,1651,2980,22,44192700,,,,,0,,,,,0
onyx_vnda,1/5/74,2946.1,357.1,2342,3482,24,63635400,,,,,0,,,,,0
onyx_vnda,1/6/74,2965,290.6,2609,3502,15,40027500,,,,,0,,,,,0
onyx_vnda,1/7/74,2804.4,343.7,2118,3189,17,42907500,,,,,0,,,,,0
onyx_vnda,1/8/74,1709.8,177.6,1459,2030,12,18465300,,,,,0,,,,,0
onyx_vnda,1/9/74,2195.7,431.4,1817,3131,13,25689600,,,,,0,,,,,0
onyx_vnda,1/10/74,2698.3,273.2,2428,3131,10,24284700,,,,,0,,,,,0
onyx_vnda,1/11/74,2417.6,230.9,2118,2742,12,26109900,,,,,0,,,,,0
onyx_vnda,1/12/74,2058.4,389.4,1427,2446,9,16673400,,,,,0,,,,,0
onyx_vnda,1/13/74,1174.6,234.6,796,1535,14,14799600,,,,,0,,,,,0
onyx_vnda,1/14/74,779.2,87.7,683,895,11,7713900,,,,,0,,,,,0
onyx_vnda,1/15/74,601.3,330.1,56,1040,24,12988800,,,,,0,,,,,0
onyx_vnda,1/16/74,611.5,354.3,47,1200,22,12106800,,,,,0,,,,,0
onyx_vnda,1/17/74,797.3,322.1,350,1336,21,15068700,,,,,0,,,,,0
onyx_vnda,1/18/74,794.8,279.8,269,1176,25,17883900,,,,,0,,,,,0
onyx_vnda,1/19/74,598.8,321,197,1124,16,8622900,,,,,0,,,,,0
onyx_vnda,1/20/74,575.5,261.7,128,869,8,4143600,,,,,0,,,,,0
onyx_vnda,1/21/74,380.6,243.4,37,675,20,6849900,,,,,0,,,,,0
onyx_vnda,1/22/74,285.4,136.9,42,549,25,6422400,,,,,0,,,,,0
onyx_vnda,1/23/74,314.5,155,23,489,25,7076700,,,,,0,,,,,0
onyx_vnda,1/24/74,345.9,206.5,58,584,20,6225300,,,,,0,,,,,0
onyx_vnda,1/25/74,341.8,206.4,70,567,17,5229000,,,,,0,,,,,0
onyx_vnda,1/26/74,226.4,153.4,27,410,19,3870900,,,,,0,,,,,0
onyx_vnda,1/27/74,189.5,130.9,50,389,16,2728800,,,,,0,,,,,0
onyx_vnda,1/28/74,151.7,93.4,30,264,16,2184300,,,,,0,,,,,0
onyx_vnda,1/29/74,144.5,77.9,19,246,22,2860200,,,,,0,,,,,0
onyx_vnda,1/30/74,56.3,20.9,20,84,19,962100,,,,,0,,,,,0
onyx_vnda,1/31/74,27.3,5.4,20,38,16,392400,,,,,0,,,,,0
onyx_vnda,2/1/74,26.3,3.6,22,32,8,189000,,,,,0,,,,,0
onyx_vnda,2/2/74,41.3,2.1,39,43,3,111600,,,,,0,,,,,0
onyx_vnda,12/10/74,8.3,9.1,0,28,11,81900,,,,,0,,,,,0
onyx_vnda,12/11/74,51.7,4.6,46,60,10,465300,,,,,0,,,,,0
onyx_vnda,12/12/74,36.5,2.6,34,40,4,131400,,,,,0,,,,,0
onyx_vnda,12/13/74,53,18.4,40,66,2,95400,,,,,0,,,,,0
onyx_vnda,12/14/74,188.3,84.3,96,322,7,1186200,,,,,0,,,,,0
onyx_vnda,12/15/74,391.8,73.5,296,475,8,2820600,,,,,0,,,,,0
onyx_vnda,12/16/74,679.5,145.9,468,848,12,7338600,,,,,0,,,,,0
onyx_vnda,12/17/74,590.7,166.6,344,900,23,12228300,,,,,0,,,,,0
onyx_vnda,12/18/74,518.4,235.1,261,776,5,2332800,,,,,0,,,,,0
onyx_vnda,12/19/74,577.3,81.4,436,679,12,6235200,,,,,0,,,,,0
onyx_vnda,12/20/74,783.8,318.9,259,1311,41,28921500,,,,,0,,,,,0
onyx_vnda,12/21/74,1228.7,153.2,1069,1585,16,17693100,,,,,0,,,,,0
onyx_vnda,12/22/74,1071.7,187.9,764,1451,21,20254500,,,,,0,,,,,0
onyx_vnda,12/23/74,560.8,244.6,195,1012,17,8580600,,,,,0,,,,,0
onyx_vnda,12/24/74,402,142.6,182,622,20,7236000,,,,,0,,,,,0
onyx_vnda,12/25/74,386.8,177.8,49,595,20,6962400,,,,,0,,,,,0
onyx_vnda,12/26/74,549.6,339.5,27,980,18,8903700,,,,,0,,,,,0
onyx_vnda,12/27/74,418.6,64.9,332,603,18,6781500,,,,,0,,,,,0
onyx_vnda,12/28/74,395.4,128.4,247,606,14,4981500,,,,,0,,,,,0
onyx_vnda,12/29/74,937,89.3,729,1079,16,13492800,,,,,0,,,,,0
onyx_vnda,12/30/74,1390.5,68,1297,1497,12,15017400,,,,,0,,,,,0
onyx_vnda,12/31/74,1393,148.8,1249,1575,4,5014800,,,,,0,,,,,0
onyx_vnda,1/1/75,1072.3,214.5,776,1384,15,14475600,,,,,0,,,,,0
onyx_vnda,1/2/75,791.2,435.5,104,1297,13,9256500,,,,,0,,,,,0
onyx_vnda,1/3/75,790.8,189.7,387,1042,22,15658200,,,,,0,,,,,0
onyx_vnda,1/4/75,769.1,82.4,611,866,14,9691200,,,,,0,,,,,0
onyx_vnda,1/5/75,556.1,128.4,378,773,17,8508600,,,,,0,,,,,0
onyx_vnda,1/6/75,363.2,23.1,330,397,6,1961100,,,,,0,,,,,0
onyx_vnda,1/7/75,277.5,69.5,173,372,17,4245300,,,,,0,,,,,0
onyx_vnda,1/8/75,307.9,98,179,439,12,3325500,,,,,0,,,,,0
onyx_vnda,1/9/75,348.6,31,294,397,10,3137400,,,,,0,,,,,0
onyx_vnda,1/10/75,289,85.1,140,425,23,5983200,,,,,0,,,,,0
onyx_vnda,1/11/75,393.6,210.6,128,811,43,15230700,,,,,0,,,,,0
onyx_vnda,1/12/75,499.4,205.8,155,823,27,12135600,,,,,0,,,,,0
onyx_vnda,1/13/75,841.7,263.4,470,1208,21,15908400,,,,,0,,,,,0
onyx_vnda,1/14/75,993.2,103.7,903,1113,5,4469400,,,,,0,,,,,0
onyx_vnda,1/15/75,1114.5,271.9,593,1506,21,21063600,,,,,0,,,,,0
onyx_vnda,1/16/75,1381.6,144.9,1130,1585,12,14921100,,,,,0,,,,,0
onyx_vnda,1/17/75,1220.3,566.9,138,2023,19,20867400,,,,,0,,,,,0
onyx_vnda,1/18/75,959.8,563.4,105,1800,16,13820400,,,,,0,,,,,0
onyx_vnda,1/19/75,789.4,231.9,468,1168,13,9235800,,,,,0,,,,,0
onyx_vnda,1/20/75,618.9,379,32,1042,18,10026900,,,,,0,,,,,0
onyx_vnda,1/21/75,440,138.6,283,657,11,4356000,,,,,0,,,,,0
onyx_vnda,1/22/75,328.1,103.2,132,457,16,4724100,,,,,0,,,,,0
onyx_vnda,1/23/75,244.6,98.8,61,374,14,3081600,,,,,0,,,,,0
onyx_vnda,1/24/75,205.7,73,104,302,10,1851300,,,,,0,,,,,0
onyx_vnda,1/25/75,336.4,114.4,187,466,7,2119500,,,,,0,,,,,0
onyx_vnda,1/26/75,291.4,133.9,52,399,8,2097900,,,,,0,,,,,0
onyx_vnda,1/27/75,234.1,61.5,144,336,13,2738700,,,,,0,,,,,0
onyx_vnda,12/13/75,12.6,12.5,0,26,5,56700,,,,,0,,,,,0
onyx_vnda,12/14/75,23.9,9,11,36,10,215100,,,,,0,,,,,0
onyx_vnda,12/15/75,23.9,6.9,13,33,8,171900,,,,,0,,,,,0
onyx_vnda,12/16/75,27.1,7.8,13,38,11,268200,,,,,0,,,,,0
onyx_vnda,12/17/75,40.2,16.5,17,57,6,216900,,,,,0,,,,,0
onyx_vnda,12/18/75,112.2,79.1,19,232,9,909000,,,,,0,,,,,0
onyx_vnda,12/19/75,170.8,102.7,31,342,12,1845000,,,,,0,,,,,0
onyx_vnda,12/20/75,179.1,66.4,67,250,9,1450800,,,,,0,,,,,0
onyx_vnda,12/21/75,146.9,47.6,81,224,12,1586700,,,,,0,,,,,0
onyx_vnda,12/22/75,84.3,26.3,44,121,10,758700,,,,,0,,,,,0
onyx_vnda,12/23/75,68.4,17.1,35,87,8,492300,,,,,0,,,,,0
onyx_vnda,12/24/75,42,16.7,17,64,10,378000,,,,,0,,,,,0
onyx_vnda,12/25/75,28.3,15.1,10,47,7,178200,,,,,0,,,,,0
onyx_vnda,12/26/75,33.7,2.1,32,36,3,90900,,,,,0,,,,,0
onyx_vnda,12/27/75,25.6,4.9,17,33,7,161100,,,,,0,,,,,0
onyx_vnda,12/28/75,20.8,2.6,18,24,6,112500,,,,,0,,,,,0
onyx_vnda,12/29/75,43.3,30.5,11,89,9,351000,,,,,0,,,,,0
onyx_vnda,12/30/75,92.5,23.7,72,121,4,333000,,,,,0,,,,,0
onyx_vnda,12/31/75,170.3,57.3,96,259,13,1992600,,,,,0,,,,,0
onyx_vnda,1/1/76,156.6,92.7,38,318,15,2114100,,,,,0,,,,,0
onyx_vnda,1/2/76,182.3,103.4,42,307,18,2952900,,,,,0,,,,,0
onyx_vnda,1/3/76,116.8,61.1,37,208,17,1787400,,,,,0,,,,,0
onyx_vnda,1/4/76,74.2,38,17,125,12,801000,,,,,0,,,,,0
onyx_vnda,1/5/76,74.6,21.5,35,105,9,603900,,,,,0,,,,,0
onyx_vnda,1/6/76,87.2,49.9,18,150,13,1019700,,,,,0,,,,,0
onyx_vnda,1/7/76,47.6,5,42,58,8,342900,,,,,0,,,,,0
onyx_vnda,1/8/76,42.6,7.9,35,56,7,268200,,,,,0,,,,,0
onyx_vnda,1/9/76,49.2,6.3,38,54,6,265500,,,,,0,,,,,0
onyx_vnda,1/10/76,28.3,4.5,24,33,3,76500,,,,,0,,,,,0
onyx_vnda,1/11/76,49.1,15.4,30,75,8,353700,,,,,0,,,,,0
onyx_vnda,1/12/76,125.1,35.8,59,165,12,1350900,,,,,0,,,,,0
onyx_vnda,1/13/76,343.5,99.5,136,421,12,3709800,,,,,0,,,,,0
onyx_vnda,1/14/76,372,43.6,307,427,11,3682800,,,,,0,,,,,0
onyx_vnda,1/15/76,250.6,109.3,103,423,11,2481300,,,,,0,,,,,0
onyx_vnda,1/16/76,340.7,113.4,181,482,6,1839600,,,,,0,,,,,0
onyx_vnda,1/17/76,349.1,80.5,225,457,9,2827800,,,,,0,,,,,0
onyx_vnda,1/18/76,492.1,79.6,342,585,7,3100500,,,,,0,,,,,0
onyx_vnda,1/19/76,291.6,158.7,107,542,10,2624400,,,,,0,,,,,0
onyx_vnda,1/20/76,335.8,170,97,525,13,3928500,,,,,0,,,,,0
onyx_vnda,1/21/76,341.2,149.5,176,614,9,2763900,,,,,0,,,,,0
onyx_vnda,1/22/76,328,171.8,128,640,11,3247200,,,,,0,,,,,0
onyx_vnda,1/23/76,291.4,189.4,52,595,13,3409200,,,,,0,,,,,0
onyx_vnda,1/24/76,331.8,176.1,101,585,12,3582900,,,,,0,,,,,0
onyx_vnda,1/25/76,158.9,121,29,370,16,2288700,,,,,0,,,,,0
onyx_vnda,1/26/76,76.3,46.2,24,148,16,1098900,,,,,0,,,,,0
onyx_vnda,1/27/76,118.5,96.4,16,332,13,1386900,,,,,0,,,,,0
onyx_vnda,1/28/76,172.7,121.2,18,340,15,2331000,,,,,0,,,,,0
onyx_vnda,1/29/76,148.8,56.4,69,242,13,1741500,,,,,0,,,,,0
onyx_vnda,1/30/76,64.2,17,41,85,9,520200,,,,,0,,,,,0
onyx_vnda,1/31/76,98.3,33.6,38,139,11,972900,,,,,0,,,,,0
onyx_vnda,2/1/76,84.7,21.3,51,111,11,838800,,,,,0,,,,,0
onyx_vnda,2/2/76,91.4,29.3,40,136,16,1316700,,,,,0,,,,,0
onyx_vnda,2/3/76,76.3,11.4,61,92,13,892800,,,,,0,,,,,0
onyx_vnda,2/4/76,54.4,19.2,30,97,9,441000,,,,,0,,,,,0